Regional Weather Roundup
Issued by NWS Huntsville, AL

Home | Current Version | Previous Version | Text Only | Print | Product List | Glossary On
Versions: 1 2 3 4 5 6 7 8 9 10 11 12 13 14 15 16 17 18 19 20 21 22 23 24 25 26 27 28
000
ASUS44 KHUN 211610
RWRHUN

WEATHER ROUNDUP FOR THE TENNESSEE VALLEY
NATIONAL WEATHER SERVICE HUNTSVILLE AL
1000 AM CST WED FEB 21 2018

ALZ001>004-211700-
NORTHWEST ALABAMA

CITY           SKY/WX    TMP DP  RH WIND       PRES   REMARKS
SHOALS AIRPORT FAIR      76  64  66 S20G26    30.29S
$$

ALZ005>007-016-211700-
NORTH CENTRAL ALABAMA

CITY           SKY/WX    TMP DP  RH WIND       PRES   REMARKS
DECATUR AP     CLOUDY    71  66  84 S9        30.33S
HUNTSVILLE AP  CLOUDY    71  69  93 S8        30.33S
MERIDIANVILLE  CLOUDY    71  66  84 S8        30.34S
REDSTONE ARSN  CLOUDY    70  67  90 S13       30.32F
VINEMONT AP    PTSUNNY   72  65  81 S12G17    30.36S
$$

ALZ008>010-211700-
NORTHEAST ALABAMA

CITY           SKY/WX    TMP DP  RH WIND       PRES   REMARKS
FORT PAYNE     CLOUDY    70  63  78 MISG      30.37S
SCOTTSBORO AP  PTSUNNY   73  66  78 S12G17    30.36S
$$

TNZ076-096-097-211700-
SOUTHEASTERN MIDDLE TENNESSEE

CITY           SKY/WX    TMP DP  RH WIND       PRES   REMARKS
TULLAHOMA      CLOUDY    72  64  78 S16G25    30.33S
WINCHESTER     CLOUDY    68  64  88 S8        30.35S
$$

...SURROUNDING SITES...

CITY           SKY/WX    TMP DP  RH WIND       PRES   REMARKS
ATLANTA        CLOUDY    69  68  96 S7        30.43R FOG
ANNISTON       CLOUDY    73  65  75 S10       30.39S
BIRMINGHAM     FAIR      76  64  66 S10G17    30.37F
CHATTANOOGA    PTSUNNY   73  63  70 S14       30.38S
CORINTH        LGT RAIN  59  57  94 N16       30.32R
DALTON         CLOUDY    68  66  94 SE7       30.41S
GADSDEN        CLOUDY    74  68  81 SE7       30.37F
GOLDEN TRNGL   CLOUDY    76  68  76 S16G22    30.29F
HALEYVILLE     CLOUDY    71  69  93 S17       30.34F
JACKSON TN     LGT RAIN  48  47  96 N15       30.38R
MEMPHIS        LGT RAIN  47  46  97 NE9       30.34F
NASHVILLE      CLOUDY    61  55  81 N14       30.33R
OXFORD MS      RAIN      57  55  94 N10G18    30.32R
ROME           CLOUDY    72  68  87 S10       30.39S
SAVANNAH       PTSUNNY   59  57  94 N9G18     30.33R FOG
TUPELO         CLOUDY    74  66  76 SE14      30.26F
TUSCALOOSA     CLOUDY    73  67  81 S12       30.33S
$$

...GULF COAST WEATHER...

CITY           SKY/WX    TMP DP  RH WIND       PRES   REMARKS
GULFPORT       CLOUDY    74  72  93 SE17      30.27R
PASCAGOULA     CLOUDY    76  69  79 SE15G23   30.29S
MOBILE         CLOUDY    75  69  81 SE17G26   30.32R
GULF SHORES    CLOUDY    75  71  86 SE14G22   30.33S
PENSACOLA      PTSUNNY   76  68  76 S14       30.33
DESTIN         FAIR      75  67  76 SE15      30.35R
PANAMA CITY    MOSUNNY   77  69  75 SE21G28   30.37R
APPALACHICOLA  CLOUDY    73  70  90 SE12      30.38S
$$





USA.gov is the U.S. government's official web portal to all federal, state and local government web resources and services.